Faith, SD

3:48 PM MST on November 23, 2017 (GMT -0700)
Faith

Weather History for KD07 - September, 2013

Change the Weather History Date:

Saturday, September 21, 2013

  Actual Average Record
Temperature  
Mean Temperature 66 °F 57 °F  
Max Temperature 84 °F 71 °F 88 °F (2015)
Min Temperature 47 °F 44 °F 36 °F (2011)
Degree Days  
Heating Degree Days 0 8  
Month to date heating degree days 28 103  
Since 1 July heating degree days 43 136  
Cooling Degree Days 1 1  
Month to date cooling degree days 117 56  
Year to date cooling degree days 707 631  
Growing Degree Days 15 (Base 50)    
Moisture  
Dew Point 42 °F    
Average Humidity 45    
Maximum Humidity 66    
Minimum Humidity 24    
Precipitation  
Precipitation 0.00 in 0.05 in 0.67 in (2006)
Month to date precipitation 0.39 1.01  
Year to date precipitation 12.76 14.83  
Sea Level Pressure  
Sea Level Pressure 29.76 in    
Wind  
Wind Speed 17 mph (SE)    
Max Wind Speed 25 mph    
Max Gust Speed 35 mph    
T = Trace of Precipitation, MM = Missing Value Source: NWS Daily Summary

Daily Weather History Graph

Daily Weather History Graph

Search for Another Location

Airport or City:

Trip Planner

Search our weather history database for the weather conditions in past years. The results will help you decide how hot, cold, wet, or windy it might be!

Date:

Astronomy

Sep. 21, 2013 Rise Set
Actual Time 6:34 AM MDT 6:46 PM MDT
Civil Twilight 6:04 AM MDT 7:16 PM MDT
Nautical Twilight 5:30 AM MDT 7:50 PM MDT
Astronomical Twilight 4:54 AM MDT 8:25 PM MDT
Moon 7:49 PM MDT (9/21) 9:03 AM MDT (9/21)
Length of Visible Light 13h 11m
Length of Day
12h 12m
Waning Gibbous, 94% of the Moon is Illuminated
Sep 21
Waning Gibbous
Sep 26
Last Quarter
Oct 4
New
Oct 11
First Quarter
Oct 18
Full

Hourly Weather History & Observations

Time (MDT) Temp. Dew Point Humidity Pressure Visibility Wind Dir Wind Speed Gust Speed Precip Events Conditions
12:56 AM 48.0 °F 37.0 °F 66% 29.96 in - SSE 11.5 mph - N/A   Unknown
1:56 AM 48.0 °F 37.0 °F 66% 29.95 in - SSE 11.5 mph - N/A   Unknown
2:56 AM 48.0 °F 36.0 °F 63% 29.92 in - SSE 15.0 mph - N/A   Unknown
3:56 AM 50.0 °F 35.1 °F 57% 29.88 in - SE 17.3 mph - N/A   Unknown
4:56 AM 48.9 °F 35.1 °F 59% 29.87 in - SE 16.1 mph - N/A   Unknown
5:56 AM 48.0 °F 36.0 °F 63% 29.85 in - SE 18.4 mph - N/A   Unknown
6:56 AM 48.0 °F 36.0 °F 63% 29.86 in - SSE 16.1 mph - N/A   Unknown
7:56 AM 53.1 °F 37.9 °F 57% 29.85 in - SE 18.4 mph - N/A   Unknown
8:56 AM 57.9 °F 39.9 °F 51% 29.83 in - SSE 19.6 mph - N/A   Unknown
9:56 AM 63.0 °F 42.1 °F 46% 29.82 in - SE 16.1 mph - N/A   Unknown
10:56 AM 68.0 °F 44.1 °F 42% 29.80 in - SE 18.4 mph - N/A   Unknown
11:56 AM 73.0 °F 44.1 °F 35% 29.77 in - SE 20.7 mph 28.8 mph N/A   Unknown
1:56 PM 81.0 °F 43.0 °F 26% 29.71 in - SE 21.9 mph 28.8 mph N/A   Unknown
2:56 PM 82.9 °F 42.1 °F 24% 29.69 in - SE 19.6 mph 26.5 mph N/A   Unknown
3:56 PM 82.0 °F 43.0 °F 25% 29.67 in - ESE 16.1 mph 25.3 mph N/A   Unknown
4:56 PM 82.9 °F 45.0 °F 26% 29.65 in - ESE 18.4 mph - N/A   Unknown
5:56 PM 79.0 °F 46.0 °F 31% 29.65 in - ESE 17.3 mph - N/A   Unknown
6:56 PM 73.0 °F 46.9 °F 39% 29.66 in - ESE 10.4 mph - N/A   Unknown
7:56 PM 70.0 °F 48.0 °F 46% 29.65 in - ESE 16.1 mph - N/A   Unknown
8:56 PM 68.0 °F 48.0 °F 49% 29.64 in - ESE 16.1 mph - N/A   Unknown
9:56 PM 66.0 °F 48.9 °F 54% 29.62 in - ESE 17.3 mph - N/A   Unknown
10:56 PM 63.0 °F 48.9 °F 60% 29.60 in - ESE 18.4 mph - N/A   Unknown
11:56 PM 62.1 °F 48.9 °F 62% 29.57 in - SE 18.4 mph - N/A   Unknown